Year,Month,Day,Hour,Minute,Value (Times are PST for temperature in C)
2009,07,26,00,00,16.00
2009,07,26,00,01,16.10
2009,07,26,00,02,16.10
2009,07,26,00,03,16.10
2009,07,26,00,04,16.10
2009,07,26,00,05,16.10
2009,07,26,00,06,16.10
2009,07,26,00,07,16.10
2009,07,26,00,08,16.20
2009,07,26,00,09,16.30
2009,07,26,00,10,16.30
2009,07,26,00,11,16.40
2009,07,26,00,12,16.50
2009,07,26,00,13,16.60
2009,07,26,00,14,16.70
2009,07,26,00,15,16.70
2009,07,26,00,16,16.70
2009,07,26,00,17,16.70
2009,07,26,00,18,16.70
2009,07,26,00,19,16.80
2009,07,26,00,20,16.80
2009,07,26,00,21,16.90
2009,07,26,00,22,16.90
2009,07,26,00,23,16.90
2009,07,26,00,24,16.90
2009,07,26,00,25,16.90
2009,07,26,00,26,16.80
2009,07,26,00,27,16.80
2009,07,26,00,28,16.80
2009,07,26,00,29,16.80
2009,07,26,00,30,16.80
2009,07,26,00,31,16.80
2009,07,26,00,32,16.80
2009,07,26,00,33,16.80
2009,07,26,00,34,16.80
2009,07,26,00,35,16.70
2009,07,26,00,36,16.70
2009,07,26,00,37,16.70
2009,07,26,00,38,16.70
2009,07,26,00,39,16.70
2009,07,26,00,40,16.70
2009,07,26,00,41,16.70
2009,07,26,00,42,16.60
2009,07,26,00,43,16.60
2009,07,26,00,44,16.60
2009,07,26,00,45,16.60
2009,07,26,00,46,16.60
2009,07,26,00,47,16.60
2009,07,26,00,48,16.60
2009,07,26,00,49,16.40
2009,07,26,00,50,16.40
2009,07,26,00,51,16.40
2009,07,26,00,52,16.40
2009,07,26,00,53,16.40
2009,07,26,00,54,16.40
2009,07,26,00,55,16.40
2009,07,26,00,56,16.30
2009,07,26,00,57,16.30
2009,07,26,00,58,16.30
2009,07,26,00,59,16.20
2009,07,26,01,00,16.20
2009,07,26,01,01,16.20
2009,07,26,01,02,16.20
2009,07,26,01,03,16.20
2009,07,26,01,04,16.30
2009,07,26,01,05,16.30
2009,07,26,01,06,16.30
2009,07,26,01,07,16.30
2009,07,26,01,08,16.30
2009,07,26,01,09,16.30
2009,07,26,01,10,16.30
2009,07,26,01,11,16.30
2009,07,26,01,12,16.30
2009,07,26,01,13,16.30
2009,07,26,01,14,16.40
2009,07,26,01,15,16.40
2009,07,26,01,16,16.40
2009,07,26,01,17,16.40
2009,07,26,01,18,16.40
2009,07,26,01,19,16.40
2009,07,26,01,20,16.40
2009,07,26,01,21,16.40
2009,07,26,01,22,16.40
2009,07,26,01,23,16.40
2009,07,26,01,24,16.40
2009,07,26,01,25,16.40
2009,07,26,01,26,16.40
2009,07,26,01,27,16.40
2009,07,26,01,28,16.50
2009,07,26,01,29,16.60
2009,07,26,01,30,16.60
2009,07,26,01,31,16.60
2009,07,26,01,32,16.60
2009,07,26,01,33,16.60
2009,07,26,01,34,16.70
2009,07,26,01,35,16.70
2009,07,26,01,36,16.70
2009,07,26,01,37,16.70
2009,07,26,01,38,16.70
2009,07,26,01,39,16.70
2009,07,26,01,40,16.70
2009,07,26,01,41,16.80
2009,07,26,01,42,16.80
2009,07,26,01,43,16.80
2009,07,26,01,44,16.80
2009,07,26,01,45,16.90
2009,07,26,01,46,16.90
2009,07,26,01,47,16.90
2009,07,26,01,48,16.90
2009,07,26,01,49,16.90
2009,07,26,01,50,16.90
2009,07,26,01,51,17.00
2009,07,26,01,52,17.00
2009,07,26,01,53,17.00
2009,07,26,01,54,17.00
2009,07,26,01,55,17.00
2009,07,26,01,56,17.00
2009,07,26,01,57,17.10
2009,07,26,01,58,17.10
2009,07,26,01,59,17.10
2009,07,26,02,00,17.10
2009,07,26,02,01,17.10
2009,07,26,02,02,17.10
2009,07,26,02,03,17.20
2009,07,26,02,04,17.20
2009,07,26,02,05,17.20
2009,07,26,02,06,17.20
2009,07,26,02,07,17.20
2009,07,26,02,08,17.20
2009,07,26,02,09,17.20
2009,07,26,02,10,17.20
2009,07,26,02,11,17.30
2009,07,26,02,12,17.30
2009,07,26,02,13,17.30
2009,07,26,02,14,17.30
2009,07,26,02,15,17.30
2009,07,26,02,16,17.30
2009,07,26,02,17,17.30
2009,07,26,02,18,17.30
2009,07,26,02,19,17.30
2009,07,26,02,20,17.30
2009,07,26,02,21,17.30
2009,07,26,02,22,17.30
2009,07,26,02,23,17.30
2009,07,26,02,24,17.30
2009,07,26,02,25,17.30
2009,07,26,02,26,17.30
2009,07,26,02,27,17.30
2009,07,26,02,28,17.30
2009,07,26,02,29,17.30
2009,07,26,02,30,17.30
2009,07,26,02,31,17.30
2009,07,26,02,32,17.30
2009,07,26,02,33,17.30
2009,07,26,02,34,17.30
2009,07,26,02,35,17.30
2009,07,26,02,36,17.30
2009,07,26,02,37,17.30
2009,07,26,02,38,17.30
2009,07,26,02,39,17.30
2009,07,26,02,40,17.30
2009,07,26,02,41,17.30
2009,07,26,02,42,17.30
2009,07,26,02,43,17.30
2009,07,26,02,44,17.30
2009,07,26,02,45,17.30
2009,07,26,02,46,17.30
2009,07,26,02,47,17.30
2009,07,26,02,48,17.40
2009,07,26,02,49,17.40
2009,07,26,02,50,17.40
2009,07,26,02,51,17.40
2009,07,26,02,52,17.40
2009,07,26,02,53,17.40
2009,07,26,02,54,17.40
2009,07,26,02,55,17.40
2009,07,26,02,56,17.40
2009,07,26,02,57,17.40
2009,07,26,02,58,17.40
2009,07,26,02,59,17.50
2009,07,26,03,00,17.50
2009,07,26,03,01,17.50
2009,07,26,03,02,17.50
2009,07,26,03,03,17.50
2009,07,26,03,04,17.60
2009,07,26,03,05,17.60
2009,07,26,03,06,17.60
2009,07,26,03,07,17.60
2009,07,26,03,08,17.60
2009,07,26,03,09,17.60
2009,07,26,03,10,17.60
2009,07,26,03,11,17.60
2009,07,26,03,12,17.60
2009,07,26,03,13,17.60
2009,07,26,03,14,17.60
2009,07,26,03,15,17.50
2009,07,26,03,16,17.50
2009,07,26,03,17,17.40
2009,07,26,03,18,17.40
2009,07,26,03,19,17.40
2009,07,26,03,20,17.40
2009,07,26,03,21,17.30
2009,07,26,03,22,17.30
2009,07,26,03,23,17.30
2009,07,26,03,24,17.30
2009,07,26,03,25,17.30
2009,07,26,03,26,17.30
2009,07,26,03,27,17.30
2009,07,26,03,28,17.30
2009,07,26,03,29,17.20
2009,07,26,03,30,17.20
2009,07,26,03,31,17.20
2009,07,26,03,32,17.10
2009,07,26,03,33,17.10
2009,07,26,03,34,17.10
2009,07,26,03,35,17.10
2009,07,26,03,36,17.20
2009,07,26,03,37,17.20
2009,07,26,03,38,17.20
2009,07,26,03,39,17.20
2009,07,26,03,40,17.10
2009,07,26,03,41,17.10
2009,07,26,03,42,17.00
2009,07,26,03,43,17.00
2009,07,26,03,44,17.00
2009,07,26,03,45,17.00
2009,07,26,03,46,17.00
2009,07,26,03,47,17.00
2009,07,26,03,48,17.00
2009,07,26,03,49,16.90
2009,07,26,03,50,16.80
2009,07,26,03,51,16.70
2009,07,26,03,52,16.50
2009,07,26,03,53,16.20
2009,07,26,03,54,16.00
2009,07,26,03,55,15.70
2009,07,26,03,56,15.30
2009,07,26,03,57,15.00
2009,07,26,03,58,14.90
2009,07,26,03,59,14.70
2009,07,26,04,00,14.60
2009,07,26,04,01,14.50
2009,07,26,04,02,14.50
2009,07,26,04,03,14.40
2009,07,26,04,04,14.40
2009,07,26,04,05,14.30
2009,07,26,04,06,14.30
2009,07,26,04,07,14.30
2009,07,26,04,08,14.40
2009,07,26,04,09,14.40
2009,07,26,04,10,14.40
2009,07,26,04,11,14.40
2009,07,26,04,12,14.40
2009,07,26,04,13,14.40
2009,07,26,04,14,14.50
2009,07,26,04,15,14.60
2009,07,26,04,16,14.60
2009,07,26,04,17,14.70
2009,07,26,04,18,14.70
2009,07,26,04,19,14.80
2009,07,26,04,20,14.80
2009,07,26,04,21,14.80
2009,07,26,04,22,15.00
2009,07,26,04,23,15.10
2009,07,26,04,24,15.20
2009,07,26,04,25,15.30
2009,07,26,04,26,15.30
2009,07,26,04,27,15.40
2009,07,26,04,28,15.50
2009,07,26,04,29,15.60
2009,07,26,04,30,15.70
2009,07,26,04,31,15.80
2009,07,26,04,32,16.00
2009,07,26,04,33,16.10
2009,07,26,04,34,16.10
2009,07,26,04,35,16.20
2009,07,26,04,36,16.30
2009,07,26,04,37,16.30
2009,07,26,04,38,16.20
2009,07,26,04,39,16.20
2009,07,26,04,40,16.20
2009,07,26,04,41,16.20
2009,07,26,04,42,16.10
2009,07,26,04,43,16.20
2009,07,26,04,44,16.20
2009,07,26,04,45,16.20
2009,07,26,04,46,16.30
2009,07,26,04,47,16.30
2009,07,26,04,48,16.40
2009,07,26,04,49,16.40
2009,07,26,04,50,16.40
2009,07,26,04,51,16.60
2009,07,26,04,52,16.60
2009,07,26,04,53,16.70
2009,07,26,04,54,16.70
2009,07,26,04,55,16.70
2009,07,26,04,56,16.70
2009,07,26,04,57,16.70
2009,07,26,04,58,16.70
2009,07,26,04,59,16.70
2009,07,26,05,00,16.70
2009,07,26,05,01,16.70
2009,07,26,05,02,16.70
2009,07,26,05,03,16.70
2009,07,26,05,04,16.70
2009,07,26,05,05,16.70
2009,07,26,05,06,16.70
2009,07,26,05,07,16.70
2009,07,26,05,08,16.70
2009,07,26,05,09,16.70
2009,07,26,05,10,16.70
2009,07,26,05,11,16.70
2009,07,26,05,12,16.70
2009,07,26,05,13,16.70
2009,07,26,05,14,16.70
2009,07,26,05,15,16.70
2009,07,26,05,16,16.70
2009,07,26,05,17,16.80
2009,07,26,05,18,16.80
2009,07,26,05,19,16.80
2009,07,26,05,20,16.70
2009,07,26,05,21,16.70
2009,07,26,05,22,16.80
2009,07,26,05,23,16.80
2009,07,26,05,24,16.80
2009,07,26,05,25,16.80
2009,07,26,05,26,16.80
2009,07,26,05,27,16.80
2009,07,26,05,28,16.80
2009,07,26,05,29,16.80
2009,07,26,05,30,16.80
2009,07,26,05,31,16.70
2009,07,26,05,32,16.70
2009,07,26,05,33,16.70
2009,07,26,05,34,16.80
2009,07,26,05,35,16.80
2009,07,26,05,36,16.80
2009,07,26,05,37,16.80
2009,07,26,05,38,16.80
2009,07,26,05,39,16.80
2009,07,26,05,40,16.80
2009,07,26,05,41,16.80
2009,07,26,05,42,16.80
2009,07,26,05,43,16.80
2009,07,26,05,44,16.80
2009,07,26,05,45,16.90
2009,07,26,05,46,16.90
2009,07,26,05,47,16.90
2009,07,26,05,48,16.90
2009,07,26,05,49,16.90
2009,07,26,05,50,16.90
2009,07,26,05,51,17.00
2009,07,26,05,52,17.00
2009,07,26,05,53,17.00
2009,07,26,05,54,17.00
2009,07,26,05,55,17.00
2009,07,26,05,56,17.00
2009,07,26,05,57,17.00
2009,07,26,05,58,17.00
2009,07,26,05,59,17.10
2009,07,26,06,00,17.10
2009,07,26,06,01,17.10
2009,07,26,06,02,17.10
2009,07,26,06,03,17.10
2009,07,26,06,04,17.10
2009,07,26,06,05,17.10
2009,07,26,06,06,17.10
2009,07,26,06,07,17.00
2009,07,26,06,08,16.90
2009,07,26,06,09,16.90
2009,07,26,06,10,16.80
2009,07,26,06,11,16.80
2009,07,26,06,12,16.80
2009,07,26,06,13,16.60
2009,07,26,06,14,16.50
2009,07,26,06,15,16.40
2009,07,26,06,16,16.20
2009,07,26,06,17,15.90
2009,07,26,06,18,15.80
2009,07,26,06,19,15.80
2009,07,26,06,20,15.80
2009,07,26,06,21,15.80
2009,07,26,06,22,15.90
2009,07,26,06,23,16.10
2009,07,26,06,24,16.30
2009,07,26,06,25,16.40
2009,07,26,06,26,16.50
2009,07,26,06,27,16.60
2009,07,26,06,28,16.70
2009,07,26,06,29,16.70
2009,07,26,06,30,16.80
2009,07,26,06,31,16.80
2009,07,26,06,32,16.90
2009,07,26,06,33,16.90
2009,07,26,06,34,17.00
2009,07,26,06,35,17.00
2009,07,26,06,36,16.90
2009,07,26,06,37,16.80
2009,07,26,06,38,16.50
2009,07,26,06,39,16.30
2009,07,26,06,40,16.10
2009,07,26,06,41,16.00
2009,07,26,06,42,15.80
2009,07,26,06,43,15.60
2009,07,26,06,44,15.50
2009,07,26,06,45,15.50
2009,07,26,06,46,15.50
2009,07,26,06,47,15.40
2009,07,26,06,48,15.50
2009,07,26,06,49,15.50
2009,07,26,06,50,15.50
2009,07,26,06,51,15.50
2009,07,26,06,52,15.50
2009,07,26,06,53,15.50
2009,07,26,06,54,15.40
2009,07,26,06,55,15.40
2009,07,26,06,56,15.40
2009,07,26,06,57,15.30
2009,07,26,06,58,15.30
2009,07,26,06,59,15.30
2009,07,26,07,00,15.40
2009,07,26,07,01,15.40
2009,07,26,07,02,15.50
2009,07,26,07,03,15.50
2009,07,26,07,04,15.60
2009,07,26,07,05,15.60
2009,07,26,07,06,15.60
2009,07,26,07,07,15.60
2009,07,26,07,08,15.60
2009,07,26,07,09,15.50
2009,07,26,07,10,15.50
2009,07,26,07,11,15.50
2009,07,26,07,12,15.60
2009,07,26,07,13,15.60
2009,07,26,07,14,15.60
2009,07,26,07,15,15.70
2009,07,26,07,16,15.70
2009,07,26,07,17,15.80
2009,07,26,07,18,15.80
2009,07,26,07,19,15.90
2009,07,26,07,20,16.00
2009,07,26,07,21,16.10
2009,07,26,07,22,16.10
2009,07,26,07,23,16.20
2009,07,26,07,24,16.20
2009,07,26,07,25,16.30
2009,07,26,07,26,16.40
2009,07,26,07,27,16.40
2009,07,26,07,28,16.60
2009,07,26,07,29,16.70
2009,07,26,07,30,16.90
2009,07,26,07,31,17.00
2009,07,26,07,32,17.00
2009,07,26,07,33,17.00
2009,07,26,07,34,17.00
2009,07,26,07,35,17.00
2009,07,26,07,36,17.00
2009,07,26,07,37,17.00
2009,07,26,07,38,17.00
2009,07,26,07,39,17.00
2009,07,26,07,40,17.00
2009,07,26,07,41,17.00
2009,07,26,07,42,16.90
2009,07,26,07,43,16.90
2009,07,26,07,44,16.80
2009,07,26,07,45,16.80
2009,07,26,07,46,16.90
2009,07,26,07,47,16.90
2009,07,26,07,48,16.90
2009,07,26,07,49,16.90
2009,07,26,07,50,16.90
2009,07,26,07,51,16.80
2009,07,26,07,52,16.80
2009,07,26,07,53,16.90
2009,07,26,07,54,16.90
2009,07,26,07,55,17.00
2009,07,26,07,56,17.20
2009,07,26,07,57,17.20
2009,07,26,07,58,17.30
2009,07,26,07,59,17.30
2009,07,26,08,00,17.30
2009,07,26,08,01,17.30
2009,07,26,08,02,17.30
2009,07,26,08,03,17.30
2009,07,26,08,04,17.30
2009,07,26,08,05,17.40
2009,07,26,08,06,17.40
2009,07,26,08,07,17.40
2009,07,26,08,08,17.40
2009,07,26,08,09,17.40
2009,07,26,08,10,17.40
2009,07,26,08,11,17.30
2009,07,26,08,12,17.30
2009,07,26,08,13,17.30
2009,07,26,08,14,17.30
2009,07,26,08,15,17.30
2009,07,26,08,16,17.40
2009,07,26,08,17,17.30
2009,07,26,08,18,17.30
2009,07,26,08,19,17.20
2009,07,26,08,20,17.20
2009,07,26,08,21,17.30
2009,07,26,08,22,17.30
2009,07,26,08,23,17.40
2009,07,26,08,24,17.40
2009,07,26,08,25,17.40
2009,07,26,08,26,17.40
2009,07,26,08,27,17.40
2009,07,26,08,28,17.50
2009,07,26,08,29,17.50
2009,07,26,08,30,17.50
2009,07,26,08,31,17.60
2009,07,26,08,32,17.60
2009,07,26,08,33,17.70
2009,07,26,08,34,17.80
2009,07,26,08,35,17.90
2009,07,26,08,36,17.90
2009,07,26,08,37,18.00
2009,07,26,08,38,18.10
2009,07,26,08,39,18.20
2009,07,26,08,40,18.20
2009,07,26,08,41,18.30
2009,07,26,08,42,18.40
2009,07,26,08,43,18.40
2009,07,26,08,44,18.40
2009,07,26,08,45,18.40
2009,07,26,08,46,18.40
2009,07,26,08,47,18.40
2009,07,26,08,48,18.40
2009,07,26,08,49,18.50
2009,07,26,08,50,18.50
2009,07,26,08,51,18.50
2009,07,26,08,52,18.50
2009,07,26,08,53,18.50
2009,07,26,08,54,18.50
2009,07,26,08,55,18.60
2009,07,26,08,56,18.60
2009,07,26,08,57,18.60
2009,07,26,08,58,18.60
2009,07,26,08,59,18.70
2009,07,26,09,00,18.80
2009,07,26,09,01,18.80
2009,07,26,09,02,18.70
2009,07,26,09,03,18.60
2009,07,26,09,04,18.60
2009,07,26,09,05,18.50
2009,07,26,09,06,18.40
2009,07,26,09,07,18.40
2009,07,26,09,08,18.40
2009,07,26,09,09,18.40
2009,07,26,09,10,18.50
2009,07,26,09,11,18.50
2009,07,26,09,12,18.60
2009,07,26,09,13,18.60
2009,07,26,09,14,18.70
2009,07,26,09,15,18.80
2009,07,26,09,16,18.90
2009,07,26,09,17,18.90
2009,07,26,09,18,19.00
2009,07,26,09,19,19.10
2009,07,26,09,20,19.10
2009,07,26,09,21,19.10
2009,07,26,09,22,19.10
2009,07,26,09,23,19.10
2009,07,26,09,24,19.10
2009,07,26,09,25,19.10
2009,07,26,09,26,19.10
2009,07,26,09,27,19.10
2009,07,26,09,28,19.10
2009,07,26,09,29,19.10
2009,07,26,09,30,19.10
2009,07,26,09,31,19.10
2009,07,26,09,32,19.10
2009,07,26,09,33,19.10
2009,07,26,09,34,19.20
2009,07,26,09,35,19.20
2009,07,26,09,36,19.10
2009,07,26,09,37,18.90
2009,07,26,09,38,18.80
2009,07,26,09,39,18.70
2009,07,26,09,40,18.70
2009,07,26,09,41,18.60
2009,07,26,09,42,18.60
2009,07,26,09,43,18.60
2009,07,26,09,44,18.60
2009,07,26,09,45,18.70
2009,07,26,09,46,18.60
2009,07,26,09,47,18.60
2009,07,26,09,48,18.50
2009,07,26,09,49,18.50
2009,07,26,09,50,18.40
2009,07,26,09,51,18.40
2009,07,26,09,52,18.40
2009,07,26,09,53,18.40
2009,07,26,09,54,18.30
2009,07,26,09,55,18.20
2009,07,26,09,56,18.20
2009,07,26,09,57,18.20
2009,07,26,09,58,18.20
2009,07,26,09,59,18.20
2009,07,26,10,00,18.30
2009,07,26,10,01,18.30
2009,07,26,10,02,18.40
2009,07,26,10,03,18.40
2009,07,26,10,04,18.40
2009,07,26,10,05,18.50
2009,07,26,10,06,18.50
2009,07,26,10,07,18.60
2009,07,26,10,08,18.70
2009,07,26,10,09,18.80
2009,07,26,10,10,19.00
2009,07,26,10,11,19.10
2009,07,26,10,12,19.20
2009,07,26,10,13,19.30
2009,07,26,10,14,19.40
2009,07,26,10,15,19.50
2009,07,26,10,16,19.60
2009,07,26,10,17,19.70
2009,07,26,10,18,19.90
2009,07,26,10,19,19.90
2009,07,26,10,20,19.90
2009,07,26,10,21,19.90
2009,07,26,10,22,19.90
2009,07,26,10,23,19.90
2009,07,26,10,24,19.90
2009,07,26,10,25,19.90
2009,07,26,10,26,20.00
2009,07,26,10,27,20.10
2009,07,26,10,28,20.10
2009,07,26,10,29,19.90
2009,07,26,10,30,19.90
2009,07,26,10,31,19.80
2009,07,26,10,32,19.70
2009,07,26,10,33,19.60
2009,07,26,10,34,19.60
2009,07,26,10,35,19.60
2009,07,26,10,36,19.60
2009,07,26,10,37,19.60
2009,07,26,10,38,19.60
2009,07,26,10,39,19.70
2009,07,26,10,40,19.80
2009,07,26,10,41,19.80
2009,07,26,10,42,19.80
2009,07,26,10,43,19.90
2009,07,26,10,44,19.90
2009,07,26,10,45,19.90
2009,07,26,10,46,20.00
2009,07,26,10,47,20.10
2009,07,26,10,48,20.20
2009,07,26,10,49,20.20
2009,07,26,10,50,20.20
2009,07,26,10,51,20.30
2009,07,26,10,52,20.40
2009,07,26,10,53,20.40
2009,07,26,10,54,20.50
2009,07,26,10,55,20.60
2009,07,26,10,56,20.50
2009,07,26,10,57,20.50
2009,07,26,10,58,20.60
2009,07,26,10,59,20.60
2009,07,26,11,00,20.60
2009,07,26,11,01,20.60
2009,07,26,11,02,20.60
2009,07,26,11,03,20.70
2009,07,26,11,04,20.60
2009,07,26,11,05,20.50
2009,07,26,11,06,20.50
2009,07,26,11,07,20.40
2009,07,26,11,08,20.30
2009,07,26,11,09,20.30
2009,07,26,11,10,20.30
2009,07,26,11,11,20.30
2009,07,26,11,12,20.40
2009,07,26,11,13,20.50
2009,07,26,11,14,20.50
2009,07,26,11,15,20.60
2009,07,26,11,16,20.50
2009,07,26,11,17,20.50
2009,07,26,11,18,20.50
2009,07,26,11,19,20.50
2009,07,26,11,20,20.40
2009,07,26,11,21,20.40
2009,07,26,11,22,20.40
2009,07,26,11,23,20.40
2009,07,26,11,24,20.40
2009,07,26,11,25,20.40
2009,07,26,11,26,20.40
2009,07,26,11,27,20.40
2009,07,26,11,28,20.50
2009,07,26,11,29,20.60
2009,07,26,11,30,20.60
2009,07,26,11,31,20.60
2009,07,26,11,32,20.60
2009,07,26,11,33,20.60
2009,07,26,11,34,20.60
2009,07,26,11,35,20.70
2009,07,26,11,36,20.80
2009,07,26,11,37,20.80
2009,07,26,11,38,20.90
2009,07,26,11,39,21.00
2009,07,26,11,40,21.00
2009,07,26,11,41,21.00
2009,07,26,11,42,21.00
2009,07,26,11,43,20.80
2009,07,26,11,44,20.80
2009,07,26,11,45,20.80
2009,07,26,11,46,20.80
2009,07,26,11,47,20.90
2009,07,26,11,48,20.90
2009,07,26,11,49,21.00
2009,07,26,11,50,21.10
2009,07,26,11,51,21.10
2009,07,26,11,52,21.00
2009,07,26,11,53,20.90
2009,07,26,11,54,20.90
2009,07,26,11,55,20.80
2009,07,26,11,56,20.80
2009,07,26,11,57,20.70
2009,07,26,11,58,20.60
2009,07,26,11,59,20.70
2009,07,26,12,00,20.70
2009,07,26,12,01,20.60
2009,07,26,12,02,20.60
2009,07,26,12,03,20.60
2009,07,26,12,04,20.70
2009,07,26,12,05,20.80
2009,07,26,12,06,20.80
2009,07,26,12,07,20.80
2009,07,26,12,08,20.80
2009,07,26,12,09,20.90
2009,07,26,12,10,21.00
2009,07,26,12,11,21.00
2009,07,26,12,12,21.10
2009,07,26,12,13,21.20
2009,07,26,12,14,21.10
2009,07,26,12,15,21.10
2009,07,26,12,16,21.00
2009,07,26,12,17,21.00
2009,07,26,12,18,21.00
2009,07,26,12,19,21.10
2009,07,26,12,20,21.10
2009,07,26,12,21,21.10
2009,07,26,12,22,21.10
2009,07,26,12,23,21.10
2009,07,26,12,24,21.20
2009,07,26,12,25,21.30
2009,07,26,12,26,21.30
2009,07,26,12,27,21.40
2009,07,26,12,28,21.50
2009,07,26,12,29,21.60
2009,07,26,12,30,21.60
2009,07,26,12,31,21.60
2009,07,26,12,32,21.60
2009,07,26,12,33,21.60
2009,07,26,12,34,21.50
2009,07,26,12,35,21.40
2009,07,26,12,36,21.40
2009,07,26,12,37,21.60
2009,07,26,12,38,21.60
2009,07,26,12,39,21.60
2009,07,26,12,40,21.70
2009,07,26,12,41,21.60
2009,07,26,12,42,21.60
2009,07,26,12,43,21.50
2009,07,26,12,44,21.40
2009,07,26,12,45,21.50
2009,07,26,12,46,21.60
2009,07,26,12,47,21.60
2009,07,26,12,48,21.70
2009,07,26,12,49,21.80
2009,07,26,12,50,21.80
2009,07,26,12,51,21.90
2009,07,26,12,52,21.90
2009,07,26,12,53,21.90
2009,07,26,12,54,22.00
2009,07,26,12,55,22.10
2009,07,26,12,56,22.10
2009,07,26,12,57,22.10
2009,07,26,12,58,22.10
2009,07,26,12,59,22.20
2009,07,26,13,00,22.30
2009,07,26,13,01,22.30
2009,07,26,13,02,22.30
2009,07,26,13,03,22.20
2009,07,26,13,04,22.30
2009,07,26,13,05,22.30
2009,07,26,13,06,22.30
2009,07,26,13,07,22.40
2009,07,26,13,08,22.40
2009,07,26,13,09,22.40
2009,07,26,13,10,22.30
2009,07,26,13,11,22.30
2009,07,26,13,12,22.30
2009,07,26,13,13,22.40
2009,07,26,13,14,22.50
2009,07,26,13,15,22.60
2009,07,26,13,16,22.60
2009,07,26,13,17,22.60
2009,07,26,13,18,22.50
2009,07,26,13,19,22.40
2009,07,26,13,20,22.30
2009,07,26,13,21,22.10
2009,07,26,13,22,22.10
2009,07,26,13,23,22.10
2009,07,26,13,24,22.20
2009,07,26,13,25,22.20
2009,07,26,13,26,22.30
2009,07,26,13,27,22.30
2009,07,26,13,28,22.30
2009,07,26,13,29,22.30
2009,07,26,13,30,22.40
2009,07,26,13,31,22.40
2009,07,26,13,32,22.50
2009,07,26,13,33,22.50
2009,07,26,13,34,22.30
2009,07,26,13,35,22.20
2009,07,26,13,36,22.10
2009,07,26,13,37,22.10
2009,07,26,13,38,22.10
2009,07,26,13,39,22.00
2009,07,26,13,40,22.00
2009,07,26,13,41,22.10
2009,07,26,13,42,22.10
2009,07,26,13,43,22.00
2009,07,26,13,44,22.10
2009,07,26,13,45,22.20
2009,07,26,13,46,22.30
2009,07,26,13,47,22.20
2009,07,26,13,48,22.10
2009,07,26,13,49,22.00
2009,07,26,13,50,22.00
2009,07,26,13,51,22.10
2009,07,26,13,52,22.10
2009,07,26,13,53,22.20
2009,07,26,13,54,22.20
2009,07,26,13,55,22.30
2009,07,26,13,56,22.30
2009,07,26,13,57,22.20
2009,07,26,13,58,22.00
2009,07,26,13,59,21.90
2009,07,26,14,00,21.80
2009,07,26,14,01,21.70
2009,07,26,14,02,21.60
2009,07,26,14,03,21.60
2009,07,26,14,04,21.60
2009,07,26,14,05,21.60
2009,07,26,14,06,21.60
2009,07,26,14,07,21.60
2009,07,26,14,08,21.60
2009,07,26,14,09,21.60
2009,07,26,14,10,21.60
2009,07,26,14,11,21.70
2009,07,26,14,12,21.70
2009,07,26,14,13,21.70
2009,07,26,14,14,21.70
2009,07,26,14,15,21.70
2009,07,26,14,16,21.60
2009,07,26,14,17,21.60
2009,07,26,14,18,21.60
2009,07,26,14,19,21.60
2009,07,26,14,20,21.60
2009,07,26,14,21,21.60
2009,07,26,14,22,21.60
2009,07,26,14,23,21.70
2009,07,26,14,24,21.70
2009,07,26,14,25,21.70
2009,07,26,14,26,21.80
2009,07,26,14,27,21.90
2009,07,26,14,28,22.10
2009,07,26,14,29,22.20
2009,07,26,14,30,22.20
2009,07,26,14,31,22.20
2009,07,26,14,32,22.20
2009,07,26,14,33,22.20
2009,07,26,14,34,22.30
2009,07,26,14,35,22.40
2009,07,26,14,36,22.50
2009,07,26,14,37,22.50
2009,07,26,14,38,22.40
2009,07,26,14,39,22.30
2009,07,26,14,40,22.30
2009,07,26,14,41,22.30
2009,07,26,14,42,22.20
2009,07,26,14,43,22.20
2009,07,26,14,44,22.20
2009,07,26,14,45,22.20
2009,07,26,14,46,22.20
2009,07,26,14,47,22.20
2009,07,26,14,48,22.30
2009,07,26,14,49,22.30
2009,07,26,14,50,22.40
2009,07,26,14,51,22.40
2009,07,26,14,52,22.50
2009,07,26,14,53,22.50
2009,07,26,14,54,22.50
2009,07,26,14,55,22.50
2009,07,26,14,56,22.60
2009,07,26,14,57,22.60
2009,07,26,14,58,22.50
2009,07,26,14,59,22.50
2009,07,26,15,00,22.50
2009,07,26,15,01,22.50
2009,07,26,15,02,22.60
2009,07,26,15,03,22.60
2009,07,26,15,04,22.70
2009,07,26,15,05,22.70
2009,07,26,15,06,22.80
2009,07,26,15,07,22.90
2009,07,26,15,08,22.90
2009,07,26,15,09,23.10
2009,07,26,15,10,23.10
2009,07,26,15,11,23.10
2009,07,26,15,12,23.20
2009,07,26,15,13,23.20
2009,07,26,15,14,23.30
2009,07,26,15,15,23.30
2009,07,26,15,16,23.30
2009,07,26,15,17,23.30
2009,07,26,15,18,23.20
2009,07,26,15,19,23.10
2009,07,26,15,20,22.90
2009,07,26,15,21,22.90
2009,07,26,15,22,22.90
2009,07,26,15,23,22.90
2009,07,26,15,24,22.90
2009,07,26,15,25,22.90
2009,07,26,15,26,22.90
2009,07,26,15,27,22.90
2009,07,26,15,28,23.00
2009,07,26,15,29,23.10
2009,07,26,15,30,23.10
2009,07,26,15,31,23.00
2009,07,26,15,32,22.90
2009,07,26,15,33,22.90
2009,07,26,15,34,23.00
2009,07,26,15,35,23.10
2009,07,26,15,36,23.20
2009,07,26,15,37,23.20
2009,07,26,15,38,23.30
2009,07,26,15,39,23.30
2009,07,26,15,40,23.30
2009,07,26,15,41,23.40
2009,07,26,15,42,23.50
2009,07,26,15,43,23.60
2009,07,26,15,44,23.50
2009,07,26,15,45,23.50
2009,07,26,15,46,23.50
2009,07,26,15,47,23.50
2009,07,26,15,48,23.60
2009,07,26,15,49,23.60
2009,07,26,15,50,23.60
2009,07,26,15,51,23.70
2009,07,26,15,52,23.70
2009,07,26,15,53,23.80
2009,07,26,15,54,23.90
2009,07,26,15,55,23.90
2009,07,26,15,56,24.00
2009,07,26,15,57,24.10
2009,07,26,15,58,24.10
2009,07,26,15,59,24.10
2009,07,26,16,00,24.10
2009,07,26,16,01,24.10
2009,07,26,16,02,24.10
2009,07,26,16,03,24.10
2009,07,26,16,04,24.10
2009,07,26,16,05,24.30
2009,07,26,16,06,24.40
2009,07,26,16,07,24.50
2009,07,26,16,08,24.60
2009,07,26,16,09,24.60
2009,07,26,16,10,24.60
2009,07,26,16,11,24.60
2009,07,26,16,12,24.80
2009,07,26,16,13,24.90
2009,07,26,16,14,25.00
2009,07,26,16,15,25.20
2009,07,26,16,16,25.30
2009,07,26,16,17,25.40
2009,07,26,16,18,25.40
2009,07,26,16,19,25.50
2009,07,26,16,20,25.60
2009,07,26,16,21,25.60
2009,07,26,16,22,25.60
2009,07,26,16,23,25.60
2009,07,26,16,24,25.70
2009,07,26,16,25,25.70
2009,07,26,16,26,25.80
2009,07,26,16,27,25.90
2009,07,26,16,28,26.10
2009,07,26,16,29,26.20
2009,07,26,16,30,26.20
2009,07,26,16,31,26.30
2009,07,26,16,32,26.40
2009,07,26,16,33,26.50
2009,07,26,16,34,26.60
2009,07,26,16,35,26.60
2009,07,26,16,36,26.50
2009,07,26,16,37,26.40
2009,07,26,16,38,26.40
2009,07,26,16,39,26.40
2009,07,26,16,40,26.30
2009,07,26,16,41,26.20
2009,07,26,16,42,26.20
2009,07,26,16,43,26.20
2009,07,26,16,44,26.20
2009,07,26,16,45,26.20
2009,07,26,16,46,26.30
2009,07,26,16,47,26.30
2009,07,26,16,48,26.10
2009,07,26,16,49,26.10
2009,07,26,16,50,26.10
2009,07,26,16,51,26.10
2009,07,26,16,52,26.10
2009,07,26,16,53,26.00
2009,07,26,16,54,26.00
2009,07,26,16,55,26.00
2009,07,26,16,56,26.00
2009,07,26,16,57,26.00
2009,07,26,16,58,26.00
2009,07,26,16,59,26.00
2009,07,26,17,00,26.10
2009,07,26,17,01,26.10
2009,07,26,17,02,25.90
2009,07,26,17,03,25.70
2009,07,26,17,04,25.60
2009,07,26,17,05,25.40
2009,07,26,17,06,25.40
2009,07,26,17,07,25.40
2009,07,26,17,08,25.50
2009,07,26,17,09,25.60
2009,07,26,17,10,25.50
2009,07,26,17,11,25.50
2009,07,26,17,12,25.40
2009,07,26,17,13,25.40
2009,07,26,17,14,25.40
2009,07,26,17,15,25.40
2009,07,26,17,16,25.30
2009,07,26,17,17,25.30
2009,07,26,17,18,25.30
2009,07,26,17,19,25.30